Regional Weather Roundup
Issued by NWS

Home | Current Version | Previous Version | Text Only | Print | Product List | Glossary On
Versions: 1 2 3 4 5 6 7 8 9 10 11 12 13 14 15 16 17 18 19 20 21 22 23 24 25 26 27 28 29 30 31 32 33 34 35 36 37 38 39 40 41 42 43 44 45 46 47 48 49 50
000
ASUS43 KOAX 311910
RWRNE

WEATHER ROUNDUP FOR NEBRASKA
NATIONAL WEATHER SERVICE OMAHA NE
200 PM CDT FRI JUL 31 2015

NOTES: SATELLITE DATA IS BEING USED TO AUGMENT CLOUD COVER ABOVE
       12000 FEET.
       "FAIR" INDICATES FEW OR NO CLOUDS BELOW 12,000 FEET WITH NO
       SIGNIFICANT WEATHER AND/OR OBSTRUCTIONS TO VISIBILITY.

  * THESE STATIONS DO NOT REPORT WEATHER SUCH AS RAIN...SNOW OR FOG.

NEZ001>004-019>022-054>056-312000-
NEBRASKA PANHANDLE

CITY           SKY/WX    TMP DP  RH WIND       PRES   REMARKS
SCOTTSBLUFF    SUNNY     87  64  46 E9        30.22F
ALLIANCE       SUNNY     89  55  31 S10       30.22F
CHADRON        SUNNY     92  52  25 N8        30.18F
KIMBALL        SUNNY     86  50  29 S14       30.27F
SIDNEY         SUNNY     88  54  31 SE9       30.26F
$$

NEZ057>060-069>072-079>082-312000-
SOUTHWEST NEBRASKA

CITY           SKY/WX    TMP DP  RH WIND       PRES   REMARKS
NORTH PLATTE   SUNNY     90  64  42 N3        30.18F HX  91
IMPERIAL       SUNNY     91  55  29 SE8       30.21F
LEXINGTON      SUNNY     90  64  41 S5        30.18S HX  91
MCCOOK         SUNNY     93  62  35 MISG      30.18F HX  93
OGALLALA       SUNNY     86  62  45 SE8       30.21F
$$

NEZ005>010-023>029-035>040-094-312000-
NORTH CENTRAL NEBRASKA

CITY           SKY/WX    TMP DP  RH WIND       PRES   REMARKS
VALENTINE      SUNNY     93  49  22 MISG      30.16  HX  90
AINSWORTH      SUNNY     90  61  37 E7        30.16F HX  90
BROKEN BOW     MOSUNNY   92  66  42 MISG      30.16F HX  94
O`NEILL        SUNNY     88  66  47 E5        30.15S HX  90
ORD            SUNNY     91  65  41 W7        30.12F HX  93
THEDFORD       SUNNY     91  57  31 CALM      30.19F HX  90
$$

NEZ041-046>049-061>064-073>077-083>087-312000-
SOUTH CENTRAL NEBRASKA

CITY           SKY/WX    TMP DP  RH WIND       PRES   REMARKS
GRAND ISLAND   MOSUNNY   92  68  45 SW8       30.15F HX  96
AURORA         MOSUNNY   88  71  57 SW6       30.15F HX  93
HASTINGS       SUNNY     87  69  54 W7        30.17F HX  91
HEBRON         SUNNY     88  64  43 S6        30.15S
HOLDREGE       SUNNY     88  65  45 SW7       30.18F
KEARNEY *      SUNNY     88  66  48 S5        30.17S HX  90
YORK           MOSUNNY   90  73  58 SW6       30.14F HX  98
$$

NEZ011>018-030>034-042>045-312000-
NORTHEAST NEBRASKA

CITY           SKY/WX    TMP DP  RH WIND       PRES   REMARKS
NORFOLK        SUNNY     91  67  44 NW5       30.11F HX  94
ALBION         MOSUNNY   90  69  49 SW5       30.11F THUNDER HX  94
BLAIR          PTSUNNY   86  72  62 SW7       30.11F HX  92
COLUMBUS *     MOSUNNY   90  72  55 S8        30.10F HX  96
FREMONT        SUNNY     90  71  54 W8        30.11F HX  96
TEKAMAH        PTSUNNY   87  73  62 CALM      30.10F HX  94
WAYNE          SUNNY     85  71  63 CALM      30.12F HX  90
$$

NEZ050>053-065>068-078-088>093-312000-
SOUTHEAST NEBRASKA

CITY           SKY/WX    TMP DP  RH WIND       PRES   REMARKS
LINCOLN        SUNNY     92  70  48 W12G17    30.12F HX  97
OMAHA EPPLEY   MOSUNNY   91  73  55 NW8       30.09F HX  99
BEATRICE       SUNNY     87  71  58 SW6       30.13F HX  92
FALLS CITY     SUNNY     86  72  62 SW5       30.12F HX  92
NEBRASKA CITY  SUNNY     87  68  53 W7        30.12F HX  90
PLATTSMOUTH    SUNNY     88  72  59 W6        30.11F HX  94
$$

NEZ044-045-051>053-067-312000-
OMAHA AREA

CITY           SKY/WX    TMP DP  RH WIND       PRES   REMARKS
OMAHA EPPLEY   MOSUNNY   91  73  55 NW8       30.09F HX  99
BLAIR          PTSUNNY   86  72  62 SW7       30.11F HX  92
FREMONT        SUNNY     90  71  54 W8        30.11F HX  96
MILLARD        MOSUNNY   89  74  61 SW9       30.09F HX  98
OFFUTT AFB     SUNNY     89  73  59 W8        30.09F HX  96
PLATTSMOUTH    SUNNY     88  72  59 W6        30.11F HX  94
WAHOO          FAIR      89  72  55 W12       30.11S HX  96
$$



USA.gov is the U.S. government's official web portal to all federal, state and local government web resources and services.